Location: Gloden
(48.4833°N, 15.3167°E)
Time: 20:41:05
(UTC+00:00)

Cosmos 1452 Rocket - Pass Details

Date: 15 December 2019
Orbit: 768 x 774 km, 74.1° (Epoch: 28 January)

Event Time Altitude Azimuth Distance (km) Brightness Sun altitude
Exits shadow 03:36:22 50° 37° (NE) 987 4.1 -29.8°
Drops below altitude 10° 03:40:16 10° 25° (NNE) 2,332 6.2 -29.1°
Sets 03:42:40 0° 25° (NNE) 3,264 7.0 -28.8°
